Hourly Data Report for June 23, 2017

QUALICUM BEACH AIRPORT
BRITISH COLUMBIA

49°20'14.000" N
124°23'38.000" W
58.20 m
1026562
71766
VOQ

Download Data

Hourly Data (June 2017)
Hourly Data Report for June 23, 2017
TIME
LST
Temp Definition
°C
Dew Point Definition
°C
Rel Hum Definition
%
Precip. Amount Definition
mm

Wind Dir Definition
10's deg

Wind Spd Definition
km/h
Visibility Definition
km
Stn Press Definition
kPa
Hmdx Definition


Wind Chill Definition


Weather Definition


00:00 13.8 7.4 65 0.0 29 8   101.72     LegendNANA
01:00 13.1 7.0 67 0.0 29 6   101.73     LegendNANA
02:00 15.0 4.9 51 0.0 30 9   101.73     LegendNANA
03:00 10.7 6.6 76 0.0 27 5   101.73     LegendNANA
04:00 10.1 6.2 77 0.0 26 4   101.79     LegendNANA
05:00 10.8 6.3 74 0.0 28 5   101.81     LegendNANA
06:00 14.9 6.8 59 0.0 29 6   101.83     LegendNANA
07:00 16.2 6.4 52 0.0 30 9   101.83     LegendNANA
08:00 16.4 6.8 53 0.0 33 12   101.85     LegendNANA
09:00 18.2 8.4 53 0.0 29 9   101.83     LegendNANA
10:00 18.7 8.1 50 0.0 30 13   101.80     LegendNANA
11:00 19.7 8.8 49 0.0 31 14   101.76     LegendNANA
12:00 20.7 8.4 45 0.0 33 15   101.75     LegendNANA
13:00 21.4 8.8 44 0.0 31 15   101.71     LegendNANA
14:00 23.4 7.0 35 0.0 33 13   101.65     LegendNANA
15:00 24.6 4.7 28 0.0 34 13   101.62     LegendNANA
16:00 25.1 4.2 26 0.0 32 11   101.56     LegendNANA
17:00 25.9 2.3 22 0.0 29 11   101.51     LegendNANA
18:00 25.7 2.4 22 0.0 29 13   101.47     LegendNANA
19:00 25.8 4.4 25 0.0 31 9   101.45 25   LegendNANA
20:00 21.1 6.9 40 0.0 28 4   101.43     LegendNANA
21:00 18.8 8.2 50 0.0 25 6   101.44     LegendNANA
22:00 20.5 6.7 41 0.0 28 9   101.45     LegendNANA
23:00 17.1 8.9 58 0.0 28 4   101.47     LegendNANA

Notes on Data Quality.

Legend

  • E = Estimated
  • M = Missing
  • NA = Not Available*
  • [empty] = Indicates an unobserved value
Date modified: